owner,sensor,date,latitude,longitude,vertical_datum,direction_of_sea_water_velocity,sea_water_speed,upward_sea_water_velocity,qcFlag 
TABS,ioos:station:wmo:42049:1,2016-06-01T00:00:00Z,28.3507,-96.0058,2.0,351.2327557,26.57047421,-99999.0,'11111222,11111222,99999999' 
TABS,ioos:station:wmo:42049:1,2016-06-01T00:30:00Z,28.3507,-96.0058,2.0,359.8996919,28.50004386,-99999.0,'11111222,11144222,99999999' 
TABS,ioos:station:wmo:42049:1,2016-06-01T01:00:00Z,28.3507,-96.0058,2.0,12.86307646,30.32088554,-99999.0,'11111222,11111222,99999999' 
TABS,ioos:station:wmo:42049:1,2016-06-01T01:30:00Z,28.3507,-96.0058,2.0,23.13913153,27.76344719,-99999.0,'11111222,11111222,99999999' 
TABS,ioos:station:wmo:42049:1,2016-06-01T02:00:00Z,28.3507,-96.0058,2.0,30.16623879,31.04425229,-99999.0,'11111222,11111222,99999999' 
TABS,ioos:station:wmo:42049:1,2016-06-01T02:30:00Z,28.3507,-96.0058,2.0,46.98053017,30.48744168,-99999.0,'11111222,11111222,99999999' 
TABS,ioos:station:wmo:42049:1,2016-06-01T03:00:00Z,28.3507,-96.0058,2.0,51.65708174,31.35236195,-99999.0,'11111222,11111222,99999999' 
TABS,ioos:station:wmo:42049:1,2016-06-01T03:30:00Z,28.3507,-96.0058,2.0,54.56758678,32.92836164,-99999.0,'11111222,11111222,99999999' 
TABS,ioos:station:wmo:42049:1,2016-06-01T04:00:00Z,28.3507,-96.0058,2.0,71.42237086,34.2760339,-99999.0,'11111222,11111222,99999999' 
TABS,ioos:station:wmo:42049:1,2016-06-01T04:30:00Z,28.3507,-96.0058,2.0,66.55456106,27.11896938,-99999.0,'11111222,11111222,99999999' 
TABS,ioos:station:wmo:42049:1,2016-06-01T05:00:00Z,28.3507,-96.0058,2.0,82.5163287,30.71160204,-99999.0,'11111222,11111222,99999999' 
TABS,ioos:station:wmo:42049:1,2016-06-01T05:30:00Z,28.3507,-96.0058,2.0,85.46761968,26.95429094,-99999.0,'11111222,11111222,99999999' 
TABS,ioos:station:wmo:42049:1,2016-06-01T06:00:00Z,28.3507,-96.0058,2.0,100.299155,27.12708241,-99999.0,'11111222,11111222,99999999' 
TABS,ioos:station:wmo:42049:1,2016-06-01T06:30:00Z,28.3507,-96.0058,2.0,115.9168278,24.11530012,-99999.0,'11111222,11111222,99999999' 
TABS,ioos:station:wmo:42049:1,2016-06-01T07:00:00Z,28.3507,-96.0058,2.0,146.8299804,23.52303127,-99999.0,'11111222,11111222,99999999' 
TABS,ioos:station:wmo:42049:1,2016-06-01T07:30:00Z,28.3507,-96.0058,2.0,139.8715471,16.81919142,-99999.0,'11111222,11111222,99999999' 
TABS,ioos:station:wmo:42049:1,2016-06-01T08:00:00Z,28.3507,-96.0058,2.0,139.2936307,15.39449577,-99999.0,'11111222,11111222,99999999' 
TABS,ioos:station:wmo:42049:1,2016-06-01T08:30:00Z,28.3507,-96.0058,2.0,148.3675318,10.58218314,-99999.0,'11111222,11111222,99999999' 
TABS,ioos:station:wmo:42049:1,2016-06-01T09:00:00Z,28.3507,-96.0058,2.0,83.69095637,6.096925455,-99999.0,'11133222,11111222,99999999' 
TABS,ioos:station:wmo:42049:1,2016-06-01T09:30:00Z,28.3507,-96.0058,2.0,98.01864433,5.089764238,-99999.0,'11133222,11111222,99999999' 
TABS,ioos:station:wmo:42049:1,2016-06-01T10:00:00Z,28.3507,-96.0058,2.0,33.66481345,6.259792329,-99999.0,'11133222,11111222,99999999' 
TABS,ioos:station:wmo:42049:1,2016-06-01T10:30:00Z,28.3507,-96.0058,2.0,15.36442792,4.604562954,-99999.0,'11133222,11111222,99999999' 
TABS,ioos:station:wmo:42049:1,2016-06-01T11:00:00Z,28.3507,-96.0058,2.0,341.1641749,5.420276746,-99999.0,'11133222,11111222,99999999' 
TABS,ioos:station:wmo:42049:1,2016-06-01T11:30:00Z,28.3507,-96.0058,2.0,344.1736566,9.936684558,-99999.0,'11133222,11111222,99999999' 
TABS,ioos:station:wmo:42049:1,2016-06-01T12:00:00Z,28.3507,-96.0058,2.0,8.800387756,4.836941182,-99999.0,'11133222,11111222,99999999' 
TABS,ioos:station:wmo:42049:1,2016-06-01T12:30:00Z,28.3507,-96.0058,2.0,0.212415583,5.400037037,-99999.0,'11133222,11111222,99999999' 
TABS,ioos:station:wmo:42049:1,2016-06-01T13:00:00Z,28.3507,-96.0058,2.0,15.1804778,11.41842809,-99999.0,'11111222,11111222,99999999' 
TABS,ioos:station:wmo:42049:1,2016-06-01T13:30:00Z,28.3507,-96.0058,2.0,9.169753843,17.696138,-99999.0,'11111222,11111222,99999999' 
TABS,ioos:station:wmo:42049:1,2016-06-01T14:00:00Z,28.3507,-96.0058,2.0,4.694855724,21.3817352,-99999.0,'11111222,11111222,99999999' 
TABS,ioos:station:wmo:42049:1,2016-06-01T14:30:00Z,28.3507,-96.0058,2.0,12.14975807,24.08957036,-99999.0,'11111222,11111222,99999999' 
TABS,ioos:station:wmo:42049:1,2016-06-01T15:00:00Z,28.3507,-96.0058,2.0,32.84893182,26.06817216,-99999.0,'11111222,11111222,99999999' 
TABS,ioos:station:wmo:42049:1,2016-06-01T15:30:00Z,28.3507,-96.0058,2.0,43.40853118,25.71325145,-99999.0,'11111222,11111222,99999999' 
TABS,ioos:station:wmo:42049:1,2016-06-01T16:00:00Z,28.3507,-96.0058,2.0,33.34475161,28.9808385,-99999.0,'11111222,11111222,99999999' 
TABS,ioos:station:wmo:42049:1,2016-06-01T16:30:00Z,28.3507,-96.0058,2.0,42.54453922,30.03719361,-99999.0,'11111222,11111222,99999999' 
TABS,ioos:station:wmo:42049:1,2016-06-01T17:00:00Z,28.3507,-96.0058,2.0,47.33596266,28.62625543,-99999.0,'11111222,11111222,99999999' 
TABS,ioos:station:wmo:42049:1,2016-06-01T17:30:00Z,28.3507,-96.0058,2.0,90.0,33.0,-99999.0,'11111222,11111222,99999999' 
TABS,ioos:station:wmo:42049:1,2016-06-01T18:00:00Z,28.3507,-96.0058,2.0,54.70008159,26.06178236,-99999.0,'11111222,11111222,99999999' 
TABS,ioos:station:wmo:42049:1,2016-06-01T18:30:00Z,28.3507,-96.0058,2.0,62.3305174,31.78490365,-99999.0,'11111222,11111222,99999999' 
TABS,ioos:station:wmo:42049:1,2016-06-01T19:00:00Z,28.3507,-96.0058,2.0,64.21221501,33.62908414,-99999.0,'11111222,11111222,99999999' 
TABS,ioos:station:wmo:42049:1,2016-06-01T19:30:00Z,28.3507,-96.0058,2.0,68.72674411,31.22785455,-99999.0,'11111222,11111222,99999999' 
TABS,ioos:station:wmo:42049:1,2016-06-01T20:00:00Z,28.3507,-96.0058,2.0,77.59857993,35.62115383,-99999.0,'11111222,11111222,99999999' 
TABS,ioos:station:wmo:42049:1,2016-06-01T20:30:00Z,28.3507,-96.0058,2.0,75.21383115,37.61564701,-99999.0,'11111222,11111222,99999999' 
TABS,ioos:station:wmo:42049:1,2016-06-01T21:00:00Z,28.3507,-96.0058,2.0,77.00418647,34.9963841,-99999.0,'11111222,11111222,99999999' 
TABS,ioos:station:wmo:42049:1,2016-06-01T21:30:00Z,28.3507,-96.0058,2.0,90.0,33.0,-99999.0,'11111222,11111222,99999999' 
TABS,ioos:station:wmo:42049:1,2016-06-01T22:00:00Z,28.3507,-96.0058,2.0,94.99253414,37.00037838,-99999.0,'11111222,11111222,99999999' 
TABS,ioos:station:wmo:42049:1,2016-06-01T22:30:00Z,28.3507,-96.0058,2.0,101.0025963,34.0050658,-99999.0,'11111222,11111222,99999999' 
TABS,ioos:station:wmo:42049:1,2016-06-01T23:00:00Z,28.3507,-96.0058,2.0,110.0017759,34.00087352,-99999.0,'11111222,11111222,99999999' 
TABS,ioos:station:wmo:42049:1,2016-06-01T23:30:00Z,28.3507,-96.0058,2.0,116.0044625,31.99966406,-99999.0,'11111222,11111222,99999999' 
TABS,ioos:station:wmo:42049:1,2016-06-02T00:00:00Z,28.3507,-96.0058,2.0,125.0091504,29.99781659,-99999.0,'11111222,11111222,99999999' 
TABS,ioos:station:wmo:42049:1,2016-06-02T00:30:00Z,28.3507,-96.0058,2.0,120.0006576,29.99933999,-99999.0,'11111222,11111222,99999999' 
TABS,ioos:station:wmo:42049:1,2016-06-02T01:00:00Z,28.3507,-96.0058,2.0,130.9980775,31.00444484,-99999.0,'11111222,11111222,99999999' 
TABS,ioos:station:wmo:42049:1,2016-06-02T01:30:00Z,28.3507,-96.0058,2.0,138.6730324,32.89146394,-99999.0,'11111222,11111222,99999999' 
TABS,ioos:station:wmo:42049:1,2016-06-02T02:00:00Z,28.3507,-96.0058,2.0,145.6927371,33.99399947,-99999.0,'11111222,11111222,99999999' 
TABS,ioos:station:wmo:42049:1,2016-06-02T02:30:00Z,28.3507,-96.0058,2.0,158.4853372,33.37544157,-99999.0,'11111222,11111222,99999999' 
TABS,ioos:station:wmo:42049:1,2016-06-02T03:00:00Z,28.3507,-96.0058,2.0,171.9885767,34.0826202,-99999.0,'11111222,11111222,99999999' 
TABS,ioos:station:wmo:42049:1,2016-06-02T03:30:00Z,28.3507,-96.0058,2.0,163.3263646,27.67351983,-99999.0,'11111222,11111222,99999999' 
TABS,ioos:station:wmo:42049:1,2016-06-02T04:00:00Z,28.3507,-96.0058,2.0,170.4249585,21.76317991,-99999.0,'11111222,11111222,99999999' 
TABS,ioos:station:wmo:42049:1,2016-06-02T04:30:00Z,28.3507,-96.0058,2.0,174.5594702,17.71981941,-99999.0,'11111222,11111222,99999999' 
TABS,ioos:station:wmo:42049:1,2016-06-02T05:00:00Z,28.3507,-96.0058,2.0,176.3298773,20.62228891,-99999.0,'11111222,11111222,99999999' 
TABS,ioos:station:wmo:42049:1,2016-06-02T05:30:00Z,28.3507,-96.0058,2.0,186.1728546,21.20294319,-99999.0,'11111222,11111222,99999999' 
TABS,ioos:station:wmo:42049:1,2016-06-02T06:00:00Z,28.3507,-96.0058,2.0,208.0688581,20.10470592,-99999.0,'11111222,11111222,99999999' 
TABS,ioos:station:wmo:42049:1,2016-06-02T06:30:00Z,28.3507,-96.0058,2.0,216.2648314,13.64275998,-99999.0,'11111222,11111222,99999999' 
TABS,ioos:station:wmo:42049:1,2016-06-02T07:00:00Z,28.3507,-96.0058,2.0,220.1038405,21.37604734,-99999.0,'11111222,11111222,99999999' 
TABS,ioos:station:wmo:42049:1,2016-06-02T07:30:00Z,28.3507,-96.0058,2.0,234.223585,25.14458192,-99999.0,'11111222,11111222,99999999' 
TABS,ioos:station:wmo:42049:1,2016-06-02T08:00:00Z,28.3507,-96.0058,2.0,248.2897471,17.4368145,-99999.0,'11111222,11111222,99999999' 
TABS,ioos:station:wmo:42049:1,2016-06-02T08:30:00Z,28.3507,-96.0058,2.0,245.9658287,14.68293227,-99999.0,'11111222,11111222,99999999' 
TABS,ioos:station:wmo:42049:1,2016-06-02T09:00:00Z,28.3507,-96.0058,2.0,249.9505654,13.35959954,-99999.0,'11111222,11111222,99999999' 
TABS,ioos:station:wmo:42049:1,2016-06-02T09:30:00Z,28.3507,-96.0058,2.0,262.5094286,10.50967649,-99999.0,'11111222,11111222,99999999' 
TABS,ioos:station:wmo:42049:1,2016-06-02T10:00:00Z,28.3507,-96.0058,2.0,302.0977868,11.87517158,-99999.0,'11111222,11111222,99999999' 
TABS,ioos:station:wmo:42049:1,2016-06-02T10:30:00Z,28.3507,-96.0058,2.0,323.2101979,11.48801114,-99999.0,'11111222,11111222,99999999' 
TABS,ioos:station:wmo:42049:1,2016-06-02T11:00:00Z,28.3507,-96.0058,2.0,313.6193914,8.50896586,-99999.0,'11133222,11111222,99999999' 
TABS,ioos:station:wmo:42049:1,2016-06-02T11:30:00Z,28.3507,-96.0058,2.0,338.1754469,4.545822258,-99999.0,'11133222,11111222,99999999' 
TABS,ioos:station:wmo:42049:1,2016-06-02T12:00:00Z,28.3507,-96.0058,2.0,22.05491541,5.459496314,-99999.0,'11133222,11111222,99999999' 
TABS,ioos:station:wmo:42049:1,2016-06-02T12:30:00Z,28.3507,-96.0058,2.0,23.02360264,6.443236764,-99999.0,'11133222,11111222,99999999' 
TABS,ioos:station:wmo:42049:1,2016-06-02T13:00:00Z,28.3507,-96.0058,2.0,52.75842269,8.014168703,-99999.0,'11133222,11111222,99999999' 
TABS,ioos:station:wmo:42049:1,2016-06-02T13:30:00Z,28.3507,-96.0058,2.0,42.15349497,6.407222487,-99999.0,'11133222,11111222,99999999' 
TABS,ioos:station:wmo:42049:1,2016-06-02T14:00:00Z,28.3507,-96.0058,2.0,54.03956689,17.64222208,-99999.0,'11111222,11111222,99999999' 
TABS,ioos:station:wmo:42049:1,2016-06-02T14:30:00Z,28.3507,-96.0058,2.0,70.21505403,21.74353237,-99999.0,'11111222,11111222,99999999' 
TABS,ioos:station:wmo:42049:1,2016-06-02T15:00:00Z,28.3507,-96.0058,2.0,82.82810587,37.88642237,-99999.0,'11111222,11111222,99999999' 
TABS,ioos:station:wmo:42049:1,2016-06-02T15:30:00Z,28.3507,-96.0058,2.0,80.44268235,36.6791085,-99999.0,'11111222,11111222,99999999' 
TABS,ioos:station:wmo:42049:1,2016-06-02T16:00:00Z,28.3507,-96.0058,2.0,75.15926508,34.20089473,-99999.0,'11111222,11111222,99999999' 
TABS,ioos:station:wmo:42049:1,2016-06-02T16:30:00Z,28.3507,-96.0058,2.0,85.6999204,37.87662208,-99999.0,'11111222,11111222,99999999' 
TABS,ioos:station:wmo:42049:1,2016-06-02T17:00:00Z,28.3507,-96.0058,2.0,94.93716661,44.96684223,-99999.0,'11111222,11111222,99999999' 
TABS,ioos:station:wmo:42049:1,2016-06-02T17:30:00Z,28.3507,-96.0058,2.0,102.9419078,50.54394128,-99999.0,'11111222,11111222,99999999' 
TABS,ioos:station:wmo:42049:1,2016-06-02T18:00:00Z,28.3507,-96.0058,2.0,106.9850622,55.86687122,-99999.0,'11111222,11111222,99999999' 
TABS,ioos:station:wmo:42049:1,2016-06-02T18:30:00Z,28.3507,-96.0058,2.0,112.4860448,52.05783418,-99999.0,'11111222,11111222,99999999' 
TABS,ioos:station:wmo:42049:1,2016-06-02T19:00:00Z,28.3507,-96.0058,2.0,126.9293803,59.63403223,-99999.0,'11111222,11111222,99999999' 
TABS,ioos:station:wmo:42049:1,2016-06-02T19:30:00Z,28.3507,-96.0058,2.0,134.1903363,65.06031817,-99999.0,'11111222,11111222,99999999' 
TABS,ioos:station:wmo:42049:1,2016-06-02T20:00:00Z,28.3507,-96.0058,2.0,141.7313888,63.3408699,-99999.0,'11111222,11111222,99999999' 
TABS,ioos:station:wmo:42049:1,2016-06-02T20:30:00Z,28.3507,-96.0058,2.0,143.0911299,61.94401424,-99999.0,'11111222,11111222,99999999' 
TABS,ioos:station:wmo:42049:1,2016-06-02T21:00:00Z,28.3507,-96.0058,2.0,138.4888408,53.21649556,-99999.0,'11111222,11111222,99999999' 
TABS,ioos:station:wmo:42049:1,2016-06-02T21:30:00Z,28.3507,-96.0058,2.0,147.7723246,51.94240657,-99999.0,'11111222,11111222,99999999' 
TABS,ioos:station:wmo:42049:1,2016-06-02T22:00:00Z,28.3507,-96.0058,2.0,155.7066238,49.07554381,-99999.0,'11111222,11111222,99999999' 
TABS,ioos:station:wmo:42049:1,2016-06-02T22:30:00Z,28.3507,-96.0058,2.0,161.3147614,42.01442133,-99999.0,'11111222,11111222,99999999' 
TABS,ioos:station:wmo:42049:1,2016-06-02T23:00:00Z,28.3507,-96.0058,2.0,162.499477,38.77468246,-99999.0,'11111222,11111222,99999999' 
TABS,ioos:station:wmo:42049:1,2016-06-02T23:30:00Z,28.3507,-96.0058,2.0,170.0766353,36.79039549,-99999.0,'11111222,11111222,99999999' 
TABS,ioos:station:wmo:42049:1,2016-06-03T00:00:00Z,28.3507,-96.0058,2.0,180.2964747,32.83044014,-99999.0,'11111222,11111222,99999999' 
TABS,ioos:station:wmo:42049:1,2016-06-03T00:30:00Z,28.3507,-96.0058,2.0,188.786371,23.69811807,-99999.0,'11111222,11111222,99999999' 
TABS,ioos:station:wmo:42049:1,2016-06-03T01:00:00Z,28.3507,-96.0058,2.0,209.1754144,21.60047453,-99999.0,'11111222,11111222,99999999' 
TABS,ioos:station:wmo:42049:1,2016-06-03T01:30:00Z,28.3507,-96.0058,2.0,219.6380064,21.49108187,-99999.0,'11111222,11111222,99999999' 
TABS,ioos:station:wmo:42049:1,2016-06-03T02:00:00Z,28.3507,-96.0058,2.0,246.4452235,18.81788777,-99999.0,'11111222,11111222,99999999' 
TABS,ioos:station:wmo:42049:1,2016-06-03T02:30:00Z,28.3507,-96.0058,2.0,264.3122632,17.15444257,-99999.0,'11111222,11111222,99999999' 
TABS,ioos:station:wmo:42049:1,2016-06-03T03:00:00Z,28.3507,-96.0058,2.0,280.0387266,17.49786844,-99999.0,'11111222,11111222,99999999' 
TABS,ioos:station:wmo:42049:1,2016-06-03T03:30:00Z,28.3507,-96.0058,2.0,304.7954493,17.40140799,-99999.0,'11111222,11111222,99999999' 
TABS,ioos:station:wmo:42049:1,2016-06-03T04:00:00Z,28.3507,-96.0058,2.0,315.5121109,15.04076128,-99999.0,'11111222,11111222,99999999' 
TABS,ioos:station:wmo:42049:1,2016-06-03T04:30:00Z,28.3507,-96.0058,2.0,303.2439922,12.45894458,-99999.0,'11111222,11111222,99999999' 
TABS,ioos:station:wmo:42049:1,2016-06-03T05:00:00Z,28.3507,-96.0058,2.0,306.1551574,10.57682372,-99999.0,'11111222,11111222,99999999' 
TABS,ioos:station:wmo:42049:1,2016-06-03T05:30:00Z,28.3507,-96.0058,2.0,307.4989892,13.48681208,-99999.0,'11111222,11111222,99999999' 
TABS,ioos:station:wmo:42049:1,2016-06-03T06:00:00Z,28.3507,-96.0058,2.0,313.9009606,13.26776545,-99999.0,'11111222,11111222,99999999' 
TABS,ioos:station:wmo:42049:1,2016-06-03T06:30:00Z,28.3507,-96.0058,2.0,344.7569239,4.25987089,-99999.0,'11133222,11111222,99999999' 
TABS,ioos:station:wmo:42049:1,2016-06-03T07:00:00Z,28.3507,-96.0058,2.0,298.2265796,4.165309112,-99999.0,'11133222,11111222,99999999' 
TABS,ioos:station:wmo:42049:1,2016-06-03T07:30:00Z,28.3507,-96.0058,2.0,151.4639866,4.291316814,-99999.0,'11133222,11111222,99999999' 
TABS,ioos:station:wmo:42049:1,2016-06-03T08:00:00Z,28.3507,-96.0058,2.0,159.7856629,5.296206189,-99999.0,'11133222,11111222,99999999' 
TABS,ioos:station:wmo:42049:1,2016-06-03T08:30:00Z,28.3507,-96.0058,2.0,120.8359704,12.31019902,-99999.0,'11111222,11111222,99999999' 
TABS,ioos:station:wmo:42049:1,2016-06-03T09:00:00Z,28.3507,-96.0058,2.0,130.5149201,20.88825747,-99999.0,'11111222,11111222,99999999' 
TABS,ioos:station:wmo:42049:1,2016-06-03T09:30:00Z,28.3507,-96.0058,2.0,153.3048541,23.66213219,-99999.0,'11111222,11111222,99999999' 
TABS,ioos:station:wmo:42049:1,2016-06-03T10:00:00Z,28.3507,-96.0058,2.0,159.721968,29.89266131,-99999.0,'11111222,11111222,99999999' 
TABS,ioos:station:wmo:42049:1,2016-06-03T10:30:00Z,28.3507,-96.0058,2.0,161.0644979,26.07081126,-99999.0,'11111222,11111222,99999999' 
TABS,ioos:station:wmo:42049:1,2016-06-03T11:00:00Z,28.3507,-96.0058,2.0,167.5275938,27.45798609,-99999.0,'11111222,11111222,99999999' 
TABS,ioos:station:wmo:42049:1,2016-06-03T11:30:00Z,28.3507,-96.0058,2.0,174.3010743,33.6362379,-99999.0,'11111222,11111222,99999999' 
TABS,ioos:station:wmo:42049:1,2016-06-03T12:00:00Z,28.3507,-96.0058,2.0,172.9152108,33.40504303,-99999.0,'11111222,11111222,99999999' 
TABS,ioos:station:wmo:42049:1,2016-06-03T12:30:00Z,28.3507,-96.0058,2.0,182.4356926,32.93976472,-99999.0,'11111222,11111222,99999999' 
TABS,ioos:station:wmo:42049:1,2016-06-03T13:00:00Z,28.3507,-96.0058,2.0,189.6116037,32.75989774,-99999.0,'11111222,11111222,99999999' 
TABS,ioos:station:wmo:42049:1,2016-06-03T13:30:00Z,28.3507,-96.0058,2.0,196.0627306,33.46659827,-99999.0,'11111222,11111222,99999999' 
TABS,ioos:station:wmo:42049:1,2016-06-03T14:00:00Z,28.3507,-96.0058,2.0,196.6795701,31.07763344,-99999.0,'11111222,11111222,99999999' 
TABS,ioos:station:wmo:42049:1,2016-06-03T14:30:00Z,28.3507,-96.0058,2.0,195.2175729,29.63930499,-99999.0,'11111222,11111222,99999999' 
TABS,ioos:station:wmo:42049:1,2016-06-03T15:00:00Z,28.3507,-96.0058,2.0,209.1579041,33.31127437,-99999.0,'11111222,11111222,99999999' 
TABS,ioos:station:wmo:42049:1,2016-06-03T15:30:00Z,28.3507,-96.0058,2.0,216.5504433,36.62256818,-99999.0,'11111222,11111222,99999999' 
TABS,ioos:station:wmo:42049:1,2016-06-03T16:00:00Z,28.3507,-96.0058,2.0,218.0375855,38.56001167,-99999.0,'11111222,11111222,99999999' 
TABS,ioos:station:wmo:42049:1,2016-06-03T16:30:00Z,28.3507,-96.0058,2.0,223.6072712,33.17310356,-99999.0,'11111222,11111222,99999999' 
TABS,ioos:station:wmo:42049:1,2016-06-03T17:00:00Z,28.3507,-96.0058,2.0,228.1328624,27.94420512,-99999.0,'11111222,11111222,99999999' 
TABS,ioos:station:wmo:42049:1,2016-06-03T17:30:00Z,28.3507,-96.0058,2.0,225.2006033,24.19734283,-99999.0,'11111222,11111222,99999999' 
TABS,ioos:station:wmo:42049:1,2016-06-03T18:00:00Z,28.3507,-96.0058,2.0,227.9587947,23.01165357,-99999.0,'11111222,11111222,99999999' 
TABS,ioos:station:wmo:42049:1,2016-06-03T18:30:00Z,28.3507,-96.0058,2.0,222.8758594,21.94245428,-99999.0,'11111222,11111222,99999999' 
TABS,ioos:station:wmo:42049:1,2016-06-03T19:00:00Z,28.3507,-96.0058,2.0,215.0569127,25.92297244,-99999.0,'11111222,11111222,99999999' 
TABS,ioos:station:wmo:42049:1,2016-06-03T19:30:00Z,28.3507,-96.0058,2.0,206.4336675,21.49761382,-99999.0,'11111222,11111222,99999999' 
TABS,ioos:station:wmo:42049:1,2016-06-03T20:00:00Z,28.3507,-96.0058,2.0,201.7658588,15.07475041,-99999.0,'11111222,11111222,99999999' 
TABS,ioos:station:wmo:42049:1,2016-06-03T20:30:00Z,28.3507,-96.0058,2.0,198.2264565,12.181174,-99999.0,'11111222,11111222,99999999' 
TABS,ioos:station:wmo:42049:1,2016-06-03T21:00:00Z,28.3507,-96.0058,2.0,186.4713352,3.371483353,-99999.0,'11133222,11111222,99999999' 
TABS,ioos:station:wmo:42049:1,2016-06-03T21:30:00Z,28.3507,-96.0058,2.0,129.0937675,3.916950344,-99999.0,'11133222,11111222,99999999' 
TABS,ioos:station:wmo:42049:1,2016-06-03T22:00:00Z,28.3507,-96.0058,2.0,80.09583995,1.279062156,-99999.0,'11133222,11111222,99999999' 
TABS,ioos:station:wmo:42049:1,2016-06-03T22:30:00Z,28.3507,-96.0058,2.0,52.42650709,7.002528115,-99999.0,'11133222,11111222,99999999' 
TABS,ioos:station:wmo:42049:1,2016-06-03T23:00:00Z,28.3507,-96.0058,2.0,46.33502052,6.981038605,-99999.0,'11133222,11111222,99999999' 
TABS,ioos:station:wmo:42049:1,2016-06-03T23:30:00Z,28.3507,-96.0058,2.0,71.68371864,12.21906707,-99999.0,'11111222,11111222,99999999' 
TABS,ioos:station:wmo:42049:1,2016-06-04T00:00:00Z,28.3507,-96.0058,2.0,84.16309727,17.60125564,-99999.0,'11111222,11111222,99999999' 
TABS,ioos:station:wmo:42049:1,2016-06-04T00:30:00Z,28.3507,-96.0058,2.0,92.31159671,21.81775424,-99999.0,'11111222,11111222,99999999' 
TABS,ioos:station:wmo:42049:1,2016-06-04T01:00:00Z,28.3507,-96.0058,2.0,99.497095,24.36393441,-99999.0,'11111222,11111222,99999999' 
TABS,ioos:station:wmo:42049:1,2016-06-04T01:30:00Z,28.3507,-96.0058,2.0,101.1897176,26.17763931,-99999.0,'11111222,11111222,99999999' 
TABS,ioos:station:wmo:42049:1,2016-06-04T02:00:00Z,28.3507,-96.0058,2.0,95.32320127,30.61202378,-99999.0,'11111222,11111222,99999999' 
TABS,ioos:station:wmo:42049:1,2016-06-04T02:30:00Z,28.3507,-96.0058,2.0,105.8591619,37.43491686,-99999.0,'11111222,11111222,99999999' 
TABS,ioos:station:wmo:42049:1,2016-06-04T03:00:00Z,28.3507,-96.0058,2.0,112.3218173,39.04591272,-99999.0,'11111222,11111222,99999999' 
TABS,ioos:station:wmo:42049:1,2016-06-04T03:30:00Z,28.3507,-96.0058,2.0,122.6504809,38.2195866,-99999.0,'11111222,11111222,99999999' 
TABS,ioos:station:wmo:42049:1,2016-06-04T04:00:00Z,28.3507,-96.0058,2.0,127.4924314,46.38073846,-99999.0,'11111222,11111222,99999999' 
TABS,ioos:station:wmo:42049:1,2016-06-04T04:30:00Z,28.3507,-96.0058,2.0,130.1644399,41.69090668,-99999.0,'11111222,11111222,99999999' 
TABS,ioos:station:wmo:42049:1,2016-06-04T05:00:00Z,28.3507,-96.0058,2.0,111.1165139,43.19025006,-99999.0,'11111222,11111222,99999999' 
TABS,ioos:station:wmo:42049:1,2016-06-04T05:30:00Z,28.3507,-96.0058,2.0,107.955987,37.07583849,-99999.0,'11111222,11111222,99999999' 
TABS,ioos:station:wmo:42049:1,2016-06-04T06:00:00Z,28.3507,-96.0058,2.0,110.7057062,35.83461036,-99999.0,'11111222,11111222,99999999' 
TABS,ioos:station:wmo:42049:1,2016-06-04T06:30:00Z,28.3507,-96.0058,2.0,124.5792067,33.77698921,-99999.0,'11111222,11111222,99999999' 
TABS,ioos:station:wmo:42049:1,2016-06-04T07:00:00Z,28.3507,-96.0058,2.0,129.6905198,36.37407043,-99999.0,'11111222,11111222,99999999' 
TABS,ioos:station:wmo:42049:1,2016-06-04T07:30:00Z,28.3507,-96.0058,2.0,132.8312735,48.58474864,-99999.0,'11111222,11111222,99999999' 
TABS,ioos:station:wmo:42049:1,2016-06-04T08:00:00Z,28.3507,-96.0058,2.0,133.0224512,55.53388245,-99999.0,'11111222,11111222,99999999' 
TABS,ioos:station:wmo:42049:1,2016-06-04T08:30:00Z,28.3507,-96.0058,2.0,135.2374555,56.27911247,-99999.0,'11111222,11111222,99999999' 
TABS,ioos:station:wmo:42049:1,2016-06-04T09:00:00Z,28.3507,-96.0058,2.0,140.5356763,56.73414845,-99999.0,'11111222,11111222,99999999' 
TABS,ioos:station:wmo:42049:1,2016-06-04T09:30:00Z,28.3507,-96.0058,2.0,139.3247209,60.57354208,-99999.0,'11111222,11111222,99999999' 
TABS,ioos:station:wmo:42049:1,2016-06-04T10:00:00Z,28.3507,-96.0058,2.0,146.9014732,58.01363978,-99999.0,'11111222,11111222,99999999' 
TABS,ioos:station:wmo:42049:1,2016-06-04T10:30:00Z,28.3507,-96.0058,2.0,153.3214094,54.23369893,-99999.0,'11111222,11111222,99999999' 
TABS,ioos:station:wmo:42049:1,2016-06-04T11:00:00Z,28.3507,-96.0058,2.0,158.4047515,50.02107756,-99999.0,'11111222,11111222,99999999' 
TABS,ioos:station:wmo:42049:1,2016-06-04T11:30:00Z,28.3507,-96.0058,2.0,166.9410401,43.5050951,-99999.0,'11111222,11111222,99999999' 
TABS,ioos:station:wmo:42049:1,2016-06-04T12:00:00Z,28.3507,-96.0058,2.0,177.3718533,41.00312183,-99999.0,'11111222,11111222,99999999' 
TABS,ioos:station:wmo:42049:1,2016-06-04T12:30:00Z,28.3507,-96.0058,2.0,176.0756409,38.43009888,-99999.0,'11111222,11111222,99999999' 
TABS,ioos:station:wmo:42049:1,2016-06-04T13:00:00Z,28.3507,-96.0058,2.0,184.8549466,28.5925952,-99999.0,'11111222,11111222,99999999' 
TABS,ioos:station:wmo:42049:1,2016-06-04T13:30:00Z,28.3507,-96.0058,2.0,218.4251867,22.91244422,-99999.0,'11111222,11111222,99999999' 
TABS,ioos:station:wmo:42049:1,2016-06-04T14:00:00Z,28.3507,-96.0058,2.0,212.6535694,24.53840256,-99999.0,'11111222,11111222,99999999' 
TABS,ioos:station:wmo:42049:1,2016-06-04T14:30:00Z,28.3507,-96.0058,2.0,224.4774328,26.37617865,-99999.0,'11111222,11111222,99999999' 
TABS,ioos:station:wmo:42049:1,2016-06-04T15:00:00Z,28.3507,-96.0058,2.0,223.7938075,25.19979563,-99999.0,'11111222,11111222,99999999' 
TABS,ioos:station:wmo:42049:1,2016-06-04T15:30:00Z,28.3507,-96.0058,2.0,231.0575655,32.96555778,-99999.0,'11111222,11111222,99999999' 
TABS,ioos:station:wmo:42049:1,2016-06-04T16:00:00Z,28.3507,-96.0058,2.0,243.8727204,35.67527155,-99999.0,'11111222,11111222,99999999' 